Location: Asheville, NC
(35.6000°N, 82.5500°W)
Time: 13:29:37
(UTC-05:00)

KKS-1 - Pass Details

Date: 12 February 2018
Orbit: 638 x 650 km, 98.3° (Epoch: 22 February)

Event Time Altitude Azimuth Distance (km) Brightness Sun altitude
Rises 19:25:45 0° 347° (NNW) 2,968 ? -16.1°
Reaches altitude 10° 19:29:33 10° 314° (NW) 2,053 ? -16.9°
Maximum altitude 19:30:55 11° 296° (WNW) 1,966 ? -17.1°
Drops below altitude 10° 19:32:16 10° 278° (W) 2,050 ? -17.4°
Sets 19:36:04 0° 245° (WSW) 2,955 ? -18.2°
